This is the latest recevied weather packets stored in our database for station/object W7BTL. If no packets are shown the sender has not sent any weather packets the latest 10 day(s).
| Time | Temp. | Humidity | Pressure | Rain* | Wind** | Luminosity | Snow |
|---|---|---|---|---|---|---|---|
| 1788233286 | 21.67° C | 76% | 1012.5 hPa | 0 mm | - | 0 W/m² | - |
| 1788232985 | 21.67° C | 76% | 1012.3 hPa | 0 mm | - | 0 W/m² | - |
| 1788232681 | 21.67° C | 75% | 1012.2 hPa | 0 mm | - | 0 W/m² | - |
| 1788232377 | 21.67° C | 75% | 1012.2 hPa | 0 mm | - | 0 W/m² | - |
| 1788232076 | 22.22° C | 75% | 1012.2 hPa | 0 mm | - | 0 W/m² | - |
| 1788231771 | 22.22° C | 75% | 1012.1 hPa | 0 mm | - | 0 W/m² | - |
| 1788231471 | 22.22° C | 75% | 1012.2 hPa | 0 mm | - | 0 W/m² | - |
| 1788231166 | 22.22° C | 74% | 1012.1 hPa | 0 mm | - | 0 W/m² | - |
| 1788230861 | 22.22° C | 74% | 1011.9 hPa | 0 mm | - | 0 W/m² | - |
| 1788230560 | 22.22° C | 73% | 1012 hPa | 0 mm | - | 0 W/m² | - |
| 1788230258 | 22.78° C | 72% | 1011.8 hPa | 0 mm | - | 0 W/m² | - |
| 1788229953 | 22.78° C | 70% | 1011.9 hPa | 0 mm | - | 1 W/m² | - |
| 1788229649 | 22.78° C | 70% | 1011.9 hPa | 0 mm | - | 1 W/m² | - |
| 1788229344 | 22.78° C | 70% | 1012 hPa | 0 mm | - | 3 W/m² | - |
| 1788229039 | 22.78° C | 69% | 1012.1 hPa | 0 mm | - | 5 W/m² | - |
| 1788228735 | 22.78° C | 67% | 1012.3 hPa | 0 mm | - | 8 W/m² | - |
| 1788228430 | 23.33° C | 67% | 1012.2 hPa | 0 mm | - | 12 W/m² | - |
| 1788228126 | 23.33° C | 67% | 1011.8 hPa | 0 mm | - | 15 W/m² | - |
| 1788227826 | 23.89° C | 66% | 1012 hPa | 0 mm | - | 19 W/m² | - |
| 1788227521 | 23.89° C | 64% | 1011.7 hPa | 0 mm | - | 23 W/m² | - |
| 1788227221 | 23.89° C | 63% | 1011.7 hPa | 0 mm | - | 26 W/m² | - |
| 1788226917 | 24.44° C | 64% | 1011.8 hPa | 0 mm | - | 29 W/m² | - |
| 1788226613 | 25° C | 62% | 1011.8 hPa | 0 mm | - | 32 W/m² | - |
| 1788226309 | 25° C | 59% | 1011.9 hPa | 0 mm | - | 40 W/m² | - |
| 1788226009 | 25.56° C | 58% | 1011.9 hPa | 0 mm | - | 54 W/m² | - |
* Rain latest hour (hover to see other rain measurements)
** Current wind speed in m/s (hover to see current wind gust speed)